Hourly Data Report for July 05, 2004

SHERBROOKE A
QUEBEC

45°26'00.000" N
71°41'00.000" W
241.40 m
7028124
71610
YSC

Download Data

Hourly Data (July 2004)
Hourly Data Report for July 5, 2004
TIME
LST
Temp Definition
°C
Dew Point Definition
°C
Rel Hum Definition
%
Precip. Amount Definition
mm

Wind Dir Definition
10's deg

Wind Spd Definition
km/h
Visibility Definition
km
Stn Press Definition
kPa
Hmdx Definition


Wind Chill Definition


Weather Definition


00:00 17.7 14.3 80   9 4 15.0 98.36      
01:00 16.7 13.8 83   9 4 15.0 98.35      
02:00 18.1 14.3 78   8 9 15.0 98.31      
03:00 19.1 14.4 74   11 9 15.0 98.25      
04:00 19.2 14.0 72   12 13 15.0 98.21      
05:00 20.5 13.4 64   15 13 15.0 98.18      
06:00 21.5 13.1 59   15 9 15.0 98.15      
07:00 21.4 12.8 58   17 4 19.3 98.13     Cloudy
08:00 21.7 13.2 58   18 11 19.3 98.14 25   Mostly Cloudy
09:00 20.9 14.4 66   20 4 19.3 98.12 25   Rain
10:00 19.8 16.2 80   12 6 19.3 98.08     Cloudy
11:00 22.8 16.4 67   19 20 19.3 98.02 28   Mostly Cloudy
12:00 23.1 16.9 68   19 19 19.3 98.00 28   Cloudy
13:00 22.6 16.7 69   18 20 19.3 97.98 28   Cloudy
14:00 21.7 16.9 74   17 13 19.3 97.96 27   Cloudy
15:00 21.6 17.5 78   19 7 19.3 97.93 27   Cloudy
16:00 22.8 17.8 73   19 19 19.3 97.89 29   Mostly Cloudy
17:00 22.1 18.0 78   19 17 15.0 97.88 28    
18:00 22.2 18.4 79   17 13 15.0 97.84 29    
19:00 21.5 18.3 82   19 11 15.0 97.85 28    
20:00 20.3 18.6 90   21 7 15.0 97.90 27    
21:00 20.2 18.5 90   25 6 15.0 97.93 27    
22:00 19.9 18.5 92   19 7 11.3 97.93      
23:00 19.7 18.1 90   22 11 15.0 97.92      

Notes on Data Quality.

Legend

  • E = Estimated
  • M = Missing
  • NA = Not Available*
  • [empty] = Indicates an unobserved value
Date modified: